User: anonymous   Login
Location: Unspecified
(0.0000°N, 0.0000°E)
Time: 23:51:42
(UTC+00:00)
Language:

ONEWEB-0126 - Orbit

View from above orbital plane
View from above orbital plane
View from above satellite
View from above satellite

Ground track
Ground track

The orbit is defined by the following mean orbital elements,

1 47272U          26145.55265161 +.00000000 +00000-0 +29933-3 0 00003
2 47272  87.8954 355.1728 0001690  89.5110 270.6212 13.12444288    03
Epoch (UTC): 25 May 2026 13:15:49
Eccentricity: 0.0001690
inclination: 87.8954°
perigee height: 1212 km
apogee height: 1215 km
right ascension of ascending node: 355.1728°
argument of perigee: 89.5110°
revolutions per day: 13.12444288
mean anomaly at epoch: 270.6212°

The dashed part of the orbit path shows where the satellite is in the earth's shadow,  

DLR